Location: Napa Soda Springs
(38.3907°N, 122.2794°W)
Time: 20:47:21
(UTC+00:00)

ERS-2 - Pass Details

Date: 29 October 2020
Orbit: 493 x 498 km, 98.6° (Epoch: 24 November)

Event Time Altitude Azimuth Distance (km) Brightness Sun altitude
Rises 12:04:14 0° 139° (SE) 2,566 6.2 -29.6°
Reaches altitude 10° 12:06:32 10° 126° (SE) 1,688 5.4 -29.2°
Maximum altitude 12:09:32 25° 70° (ENE) 1,034 4.3 -28.6°
Enters shadow 12:10:35 22° 43° (NE) 1,134 4.3 -28.4°
